Lawrence, MA

11:14 PM EDT on October 22, 2017 (GMT -0400)
Lawrence Municipal

Weather History for KLWM - November, 2012

Change the Weather History Date:

Tuesday, November 27, 2012

  Actual Average Record
Temperature  
Mean Temperature 31 °F -  
Max Temperature 36 °F 48 °F 67 °F (1979)
Min Temperature 26 °F 29 °F 5 °F (1932)
Degree Days  
Heating Degree Days 34    
Moisture  
Dew Point 30 °F    
Average Humidity 87    
Maximum Humidity 93    
Minimum Humidity 72    
Precipitation  
Precipitation 0.05 in - - ()
Sea Level Pressure  
Sea Level Pressure 30.29 in    
Wind  
Wind Speed 1 mph (WNW)    
Max Wind Speed 7 mph    
Max Gust Speed -    
Visibility 6 miles    
Events Rain , Snow    
Averages and records for this station are not official NWS values.
T = Trace of Precipitation, MM = Missing Value Source: NWS Daily Summary

Daily Weather History Graph

Daily Weather History Graph

Search for Another Location

Airport or City:

Trip Planner

Search our weather history database for the weather conditions in past years. The results will help you decide how hot, cold, wet, or windy it might be!

Date:

Astronomy

Nov. 27, 2012 Rise Set
Actual Time 6:51 AM EST 4:13 PM EST
Civil Twilight 6:19 AM EST 4:44 PM EST
Nautical Twilight 5:44 AM EST 5:19 PM EST
Astronomical Twilight 5:10 AM EST 5:53 PM EST
Moon 3:42 PM EST (11/27) 5:52 AM EST (11/27)
Length of Visible Light 10h 24m
Length of Day
9h 21m
Waxing Gibbous, 99% of the Moon is Illuminated
Nov 27
Waxing Gibbous
Nov 28
Full
Dec 6
Last Quarter
Dec 13
New
Dec 20
First Quarter

Hourly Weather History & Observations

Time (EST) Temp. Windchill Dew Point Humidity Pressure Visibility Wind Dir Wind Speed Gust Speed Precip Events Conditions
12:54 AM 28.9 °F - 21.0 °F 72% 30.27 in 10.0 mi Calm Calm - N/A   Clear
1:54 AM 28.0 °F - 21.0 °F 75% 30.28 in 10.0 mi Calm Calm - N/A   Clear
2:54 AM 28.0 °F - 21.9 °F 78% 30.30 in 10.0 mi Calm Calm - N/A   Clear
3:54 AM 26.1 °F - 21.0 °F 81% 30.30 in 10.0 mi Calm Calm - N/A   Partly Cloudy
4:54 AM 28.0 °F - 21.9 °F 78% 30.29 in 10.0 mi Calm Calm - N/A   Mostly Cloudy
5:54 AM 28.9 °F - 24.1 °F 82% 30.29 in 10.0 mi Calm Calm - N/A   Overcast
6:54 AM 30.0 °F 26.5 °F 23.0 °F 75% 30.31 in 10.0 mi SW 3.5 mph - N/A   Overcast
7:54 AM 30.9 °F - 25.0 °F 79% 30.32 in 10.0 mi Calm Calm - N/A   Overcast
8:54 AM 33.1 °F 30.0 °F 25.0 °F 72% 30.33 in 10.0 mi SSW 3.5 mph - N/A   Overcast
9:54 AM 36.0 °F 30.3 °F 28.0 °F 73% 30.35 in 10.0 mi SSW 6.9 mph - N/A   Overcast
10:54 AM 36.0 °F 30.3 °F 30.9 °F 82% 30.34 in 10.0 mi SSW 6.9 mph - N/A   Overcast
11:07 AM 35.6 °F 30.7 °F 32.0 °F 87% 30.33 in 8.0 mi South 5.8 mph - 0.00 in   Overcast
11:31 AM 35.6 °F 31.7 °F 32.0 °F 87% 30.33 in 4.0 mi SSW 4.6 mph - 0.00 in Snow Light Snow
11:54 AM 36.0 °F 32.1 °F 32.0 °F 86% 30.32 in 4.0 mi SSW 4.6 mph - 0.00 in Snow Light Snow
12:54 PM 36.0 °F - 33.1 °F 89% 30.32 in 4.0 mi Calm Calm - 0.02 in Rain Light Rain
1:54 PM 36.0 °F - 33.1 °F 89% 30.30 in 5.0 mi Calm Calm - 0.00 in Rain Light Rain
2:54 PM 36.0 °F - 33.1 °F 89% 30.29 in 4.0 mi Calm Calm - 0.01 in Rain Light Rain
3:54 PM 35.1 °F - 32.0 °F 89% 30.29 in 4.0 mi Calm Calm - 0.01 in Rain Light Rain
4:54 PM 35.1 °F - 32.0 °F 89% 30.29 in 5.0 mi Calm Calm - 0.01 in Rain Light Rain
5:39 PM 35.6 °F - 32.0 °F 87% 30.28 in 4.0 mi Calm Calm - 0.00 in   Overcast
5:54 PM 35.1 °F - 32.0 °F 89% 30.30 in 4.0 mi Calm Calm - 0.00 in   Overcast
6:54 PM 34.0 °F - 32.0 °F 92% 30.29 in 3.0 mi Calm Calm - 0.00 in   Overcast
7:07 PM 33.8 °F - 32.0 °F 93% 30.28 in 3.0 mi Calm Calm - 0.00 in   Overcast
7:38 PM 33.8 °F - 32.0 °F 93% 30.28 in 4.0 mi Calm Calm - 0.00 in   Overcast
7:54 PM 34.0 °F - 32.0 °F 92% 30.29 in 4.0 mi Calm Calm - 0.00 in   Overcast
8:30 PM 33.8 °F - 32.0 °F 93% 30.28 in 3.0 mi Calm Calm - N/A   Overcast
8:35 PM 33.8 °F - 32.0 °F 93% 30.28 in 3.0 mi Calm Calm - 0.00 in   Overcast
8:54 PM 34.0 °F - 32.0 °F 92% 30.28 in 3.0 mi Calm Calm - 0.00 in   Overcast
9:12 PM 33.8 °F - 32.0 °F 93% 30.27 in 3.0 mi Calm Calm - 0.00 in   Overcast
9:20 PM 33.8 °F - 30.2 °F 87% 30.28 in 3.0 mi Calm Calm - 0.00 in   Overcast
9:35 PM 33.8 °F 30.8 °F 32.0 °F 93% 30.27 in 3.0 mi North 3.5 mph - 0.00 in   Overcast
9:42 PM 33.8 °F 30.8 °F 32.0 °F 93% 30.27 in 3.0 mi NNW 3.5 mph - 0.00 in   Overcast
9:49 PM 33.8 °F 30.8 °F 32.0 °F 93% 30.27 in 2.5 mi North 3.5 mph - 0.00 in   Overcast
9:54 PM 34.0 °F - 32.0 °F 92% 30.28 in 2.5 mi Calm Calm - 0.00 in   Overcast
10:42 PM 33.8 °F 30.8 °F 32.0 °F 93% 30.26 in 3.0 mi NNW 3.5 mph - N/A   Overcast
10:50 PM 33.8 °F 30.8 °F 32.0 °F 93% 30.26 in 2.5 mi North 3.5 mph - N/A   Overcast
10:54 PM 34.0 °F 29.8 °F 32.0 °F 92% 30.27 in 2.5 mi North 4.6 mph - N/A   Overcast
11:02 PM 33.8 °F 28.6 °F 32.0 °F 93% 30.26 in 3.0 mi NNW 5.8 mph - N/A   Overcast
11:54 PM 33.1 °F 27.7 °F 30.0 °F 89% 30.26 in 8.0 mi North 5.8 mph - 0.00 in   Overcast